Location: Burla
(50.9568°N, 10.4983°E)
Time: 01:15:11
(UTC+00:00)

CZ-2C R/B - Pass Details

Date: 18 January 2026
Orbit: 662 x 774 km, 98.4° (Epoch: 6 February)

Event Time Altitude Azimuth Distance (km) Brightness Sun altitude
Rises 05:05:15 0° 4° (N) 3,041 5.6 -19.4°
Reaches altitude 10° 05:08:00 10° 348° (NNW) 2,110 4.6 -19.0°
Enters shadow 05:08:21 11° 344° (NNW) 2,009 4.4 -18.9°
